When you browse on this site, cookies collect data to enhance your experience and personalize the content and advertising you see.
Visit our Privacy Policy to learn more. By continuing to use the site, you agree to this use of cookies and data.
  • In Spain
  • List of Countries
  • For 7 days
  • Water Temperature
  • Weather Map
  • Weather Widgets
  • user-avatar
    Login

    Hourly Weather Turin

    Today, 2 June, Tuesday

    Time Temperature Precipitation Wind Pressure Humidity
    00:00 +19°C° 0 mm 1 mps 741 mmHg 78%
    01:00 +19°C° 0 mm 1 mps 740 mmHg 77%
    02:00 +18°C° 0.1 mm 1 mps 740 mmHg 78%
    03:00 +18°C° 0.1 mm 1 mps 740 mmHg 78%
    04:00 +18°C° 0.1 mm 1 mps 740 mmHg 79%
    05:00 +17°C° 0 mm 0 mps 739 mmHg 78%
    06:00 +17°C° 0 mm 0 mps 739 mmHg 76%
    07:00 +18°C° 0 mm 0 mps 739 mmHg 74%
    08:00 +20°C° 0 mm 0 mps 739 mmHg 70%
    09:00 +23°C° 0 mm 1 mps 739 mmHg 66%
    10:00 +25°C° 0 mm 1 mps 739 mmHg 62%
    11:00 +26°C° 0.1 mm 1 mps 739 mmHg 58%
    12:00 +27°C° 0.1 mm 1 mps 738 mmHg 54%
    13:00 +28°C° 0.1 mm 1 mps 738 mmHg 50%
    14:00 +28°C° 0.2 mm 1 mps 738 mmHg 49%
    15:00 +28°C° 0.2 mm 1 mps 737 mmHg 47%
    16:00 +28°C° 0.2 mm 1 mps 737 mmHg 46%
    17:00 +27°C° 0.2 mm 1 mps 737 mmHg 52%
    18:00 +26°C° 0.2 mm 1 mps 736 mmHg 58%
    19:00 +25°C° 0.2 mm 1 mps 736 mmHg 64%
    20:00 +23°C° 0.1 mm 1 mps 736 mmHg 68%
    21:00 +21°C° 0.1 mm 1 mps 736 mmHg 73%
    22:00 +18°C° 0.1 mm 2 mps 737 mmHg 77%
    23:00 +19°C° 0.3 mm 1 mps 736 mmHg 79%

    Tomorrow, 3 June, Wednesday

    Time Temperature Precipitation Wind Pressure Humidity
    00:00 +18°C° 0.3 mm 1 mps 736 mmHg 81%
    01:00 +16°C° 0.3 mm 1 mps 736 mmHg 83%
    02:00 +16°C° 0.2 mm 1 mps 736 mmHg 83%
    03:00 +16°C° 0.2 mm 1 mps 735 mmHg 83%
    04:00 +15°C° 0.2 mm 1 mps 735 mmHg 83%
    05:00 +15°C° 0 mm 0 mps 735 mmHg 82%
    06:00 +16°C° 0 mm 0 mps 735 mmHg 80%
    07:00 +17°C° 0 mm 0 mps 734 mmHg 79%
    08:00 +21°C° 0 mm 1 mps 734 mmHg 74%
    09:00 +22°C° 0 mm 1 mps 734 mmHg 70%
    10:00 +23°C° 0 mm 1 mps 734 mmHg 65%
    11:00 +24°C° 0.2 mm 1 mps 734 mmHg 65%
    12:00 +24°C° 0.2 mm 2 mps 733 mmHg 65%
    13:00 +25°C° 0.2 mm 2 mps 733 mmHg 66%
    14:00 +25°C° 1.5 mm 2 mps 732 mmHg 67%
    15:00 +25°C° 1.5 mm 2 mps 732 mmHg 69%
    16:00 +25°C° 1.5 mm 2 mps 732 mmHg 71%
    17:00 +24°C° 1.5 mm 2 mps 731 mmHg 76%
    18:00 +23°C° 1.5 mm 2 mps 731 mmHg 80%
    19:00 +21°C° 1.5 mm 2 mps 731 mmHg 85%
    20:00 +21°C° 1.5 mm 1 mps 731 mmHg 86%
    21:00 +20°C° 1.5 mm 1 mps 731 mmHg 88%
    22:00 +19°C° 1.5 mm 1 mps 731 mmHg 89%
    23:00 +19°C° 0.7 mm 1 mps 731 mmHg 90%

    Day after tomorrow, 4 June, Thursday

    Time Temperature Precipitation Wind Pressure Humidity
    00:00 +19°C° 0.7 mm 1 mps 731 mmHg 90%
    01:00 +18°C° 0.7 mm 1 mps 730 mmHg 90%
    02:00 +18°C° 0.2 mm 1 mps 730 mmHg 90%
    03:00 +18°C° 0.2 mm 1 mps 729 mmHg 91%
    04:00 +16°C° 0.2 mm 1 mps 729 mmHg 91%
    05:00 +18°C° 0.1 mm 1 mps 729 mmHg 90%
    06:00 +16°C° 0.1 mm 0 mps 728 mmHg 89%
    07:00 +17°C° 0.1 mm 0 mps 728 mmHg 87%
    08:00 +20°C° 0.3 mm 1 mps 728 mmHg 86%
    09:00 +20°C° 0.3 mm 1 mps 728 mmHg 84%
    10:00 +21°C° 0.3 mm 1 mps 728 mmHg 82%
    11:00 +21°C° 1 mm 1 mps 728 mmHg 82%
    12:00 +20°C° 1 mm 2 mps 727 mmHg 81%
    13:00 +21°C° 1 mm 2 mps 727 mmHg 81%
    14:00 +20°C° 2 mm 2 mps 727 mmHg 85%
    15:00 +19°C° 2 mm 2 mps 726 mmHg 88%
    16:00 +18°C° 2 mm 2 mps 726 mmHg 91%
    17:00 +18°C° 1.4 mm 2 mps 726 mmHg 91%
    18:00 +17°C° 1.4 mm 2 mps 725 mmHg 92%
    19:00 +17°C° 1.4 mm 2 mps 725 mmHg 92%
    20:00 +17°C° 0.4 mm 2 mps 725 mmHg 92%
    21:00 +16°C° 0.4 mm 2 mps 725 mmHg 93%
    22:00 +16°C° 0.4 mm 2 mps 725 mmHg 93%
    23:00 +15°C° 0.2 mm 1 mps 725 mmHg 92%

    5 June, Friday

    Time Temperature Precipitation Wind Pressure Humidity
    00:00 +15°C° 0.2 mm 1 mps 725 mmHg 90%
    01:00 +14°C° 0.2 mm 1 mps 725 mmHg 89%
    02:00 +14°C° 0.1 mm 1 mps 725 mmHg 88%
    03:00 +14°C° 0.1 mm 1 mps 725 mmHg 87%
    04:00 +14°C° 0.1 mm 1 mps 725 mmHg 87%
    05:00 +14°C° 0 mm 1 mps 726 mmHg 84%
    06:00 +15°C° 0 mm 2 mps 726 mmHg 81%
    07:00 +16°C° 0 mm 2 mps 726 mmHg 78%
    08:00 +18°C° 0 mm 2 mps 726 mmHg 69%
    09:00 +21°C° 0 mm 1 mps 727 mmHg 61%
    10:00 +23°C° 0 mm 1 mps 727 mmHg 53%
    11:00 +24°C° 0 mm 1 mps 728 mmHg 49%
    12:00 +25°C° 0 mm 1 mps 728 mmHg 46%
    13:00 +26°C° 0 mm 1 mps 728 mmHg 42%
    14:00 +26°C° 0 mm 1 mps 729 mmHg 43%
    15:00 +26°C° 0 mm 2 mps 729 mmHg 44%
    16:00 +26°C° 0 mm 2 mps 729 mmHg 46%
    17:00 +25°C° 0 mm 2 mps 729 mmHg 52%
    18:00 +24°C° 0 mm 1 mps 730 mmHg 57%
    19:00 +23°C° 0 mm 1 mps 730 mmHg 63%
    20:00 +21°C° 0 mm 2 mps 731 mmHg 63%
    21:00 +19°C° 0 mm 2 mps 732 mmHg 63%
    22:00 +17°C° 0 mm 2 mps 732 mmHg 63%
    23:00 +17°C° 0 mm 2 mps 733 mmHg 61%

    6 June, Saturday

    Time Temperature Precipitation Wind Pressure Humidity
    00:00 +16°C° 0 mm 2 mps 733 mmHg 60%
    01:00 +16°C° 0 mm 1 mps 733 mmHg 58%
    02:00 +16°C° 0 mm 1 mps 733 mmHg 59%
    03:00 +15°C° 0 mm 1 mps 733 mmHg 60%
    04:00 +15°C° 0 mm 1 mps 733 mmHg 60%
    05:00 +16°C° 0 mm 1 mps 734 mmHg 61%
    06:00 +18°C° 0 mm 1 mps 734 mmHg 62%
    07:00 +17°C° 0 mm 0 mps 734 mmHg 63%
    08:00 +20°C° 0 mm 1 mps 734 mmHg 64%
    09:00 +21°C° 0 mm 1 mps 734 mmHg 64%
    10:00 +21°C° 0 mm 2 mps 734 mmHg 64%
    11:00 +23°C° 0.1 mm 2 mps 734 mmHg 65%
    12:00 +23°C° 0.1 mm 2 mps 734 mmHg 65%
    13:00 +24°C° 0.1 mm 2 mps 734 mmHg 66%
    14:00 +24°C° 0.3 mm 2 mps 734 mmHg 68%
    15:00 +23°C° 0.3 mm 2 mps 734 mmHg 70%
    16:00 +23°C° 0.3 mm 2 mps 734 mmHg 73%
    17:00 +23°C° 0.8 mm 1 mps 734 mmHg 77%
    18:00 +22°C° 0.8 mm 1 mps 734 mmHg 81%
    19:00 +21°C° 0.8 mm 1 mps 734 mmHg 85%
    20:00 +20°C° 0.2 mm 1 mps 734 mmHg 86%
    21:00 +19°C° 0.2 mm 1 mps 734 mmHg 87%
    22:00 +18°C° 0.2 mm 1 mps 735 mmHg 88%
    23:00 +18°C° 0.1 mm 1 mps 735 mmHg 88%

    7 June, Sunday

    Time Temperature Precipitation Wind Pressure Humidity
    00:00 +18°C° 0.1 mm 1 mps 734 mmHg 89%
    01:00 +16°C° 0.1 mm 1 mps 734 mmHg 89%
    02:00 +16°C° 0 mm 1 mps 734 mmHg 89%
    03:00 +16°C° 0 mm 1 mps 734 mmHg 89%
    04:00 +15°C° 0 mm 0 mps 734 mmHg 89%
    05:00 +15°C° 0.3 mm 0 mps 734 mmHg 89%
    06:00 +16°C° 0.3 mm 0 mps 734 mmHg 89%
    07:00 +16°C° 0.3 mm 0 mps 734 mmHg 89%
    08:00 +19°C° 0.5 mm 1 mps 734 mmHg 87%
    09:00 +20°C° 0.5 mm 1 mps 734 mmHg 86%
    10:00 +20°C° 0.5 mm 1 mps 734 mmHg 84%
    11:00 +21°C° 0.9 mm 1 mps 734 mmHg 83%
    12:00 +21°C° 0.9 mm 1 mps 734 mmHg 82%
    13:00 +22°C° 0.9 mm 1 mps 734 mmHg 81%
    14:00 +22°C° 0.5 mm 1 mps 733 mmHg 78%
    15:00 +23°C° 0.5 mm 2 mps 733 mmHg 75%
    16:00 +24°C° 0.5 mm 2 mps 733 mmHg 72%
    17:00 +23°C° 1.4 mm 2 mps 733 mmHg 77%
    18:00 +21°C° 1.4 mm 2 mps 733 mmHg 81%
    19:00 +20°C° 1.4 mm 2 mps 733 mmHg 86%
    20:00 +19°C° 1.3 mm 2 mps 734 mmHg 89%
    21:00 +17°C° 1.3 mm 2 mps 734 mmHg 91%
    22:00 +16°C° 1.3 mm 2 mps 734 mmHg 93%
    23:00 +16°C° 0.2 mm 2 mps 734 mmHg 93%
    Show more